Regional Weather Roundup
Issued by NWS

Home | Current Version | Previous Version | Text Only | Print | Product List | Glossary Off
Versions: 1 2 3 4 5 6 7 8 9 10 11 12 13 14 15 16 17 18 19 20 21 22 23 24 25 26 27 28 29 30 31 32 33 34 35 36 37 38 39 40 41 42 43 44 45 46 47 48 49 50

000
ASUS44 KMEG 280310
RWRTN
TENNESSEE HOURLY STATE WEATHER ROUNDUP
NATIONAL WEATHER SERVICE MEMPHIS TN
1000 PM CDT WED APR 27 2016

TNZ002-004-019-021-049-052-054-088>092-280400-
WEST TENNESSEE

CITY           SKY/WX    TMP DP  RH WIND       PRES   REMARKS
MEMPHIS INTL   PTCLDY    70  66  87 S7        29.73R
NWS MEMPHIS      N/A     69 N/A N/A MISG        N/A
JACKSON        PTCLDY    67  65  93 S5        29.74R
DYERSBURG      CLEAR     68  63  83 S5        29.74R
UNION CITY     CLEAR     66  64  94 SE6       29.73R
LEXINGTON      CLEAR     64  64 100 SE3       29.74S
$$

TNZ008-025-027-028-033-062-065-066-280400-
NORTH MIDDLE TENNESSEE

CITY           SKY/WX    TMP DP  RH WIND       PRES   REMARKS
NASHVILLE      CLOUDY    68  64  87 SE3       29.79R
CLARKSVILLE    CLEAR     64  60  87 S3        29.76R
SMYRNA         CLOUDY    67  65  93 S3        29.80R
COOKEVILLE     MOCLDY    64  63  94 SE3       29.83F
CROSSVILLE     RAIN      63  58  83 VRB3      29.89S
$$

TNZ061-075-076-078-094-096-097-280400-
SOUTH MIDDLE TENNESSEE

CITY           SKY/WX    TMP DP  RH WIND       PRES   REMARKS
FAYETTEVILLE   CLOUDY    68  64  88 S6        29.81S
TULLAHOMA      CLEAR     63  63 100 SE5       29.83S
WINCHESTER     CLEAR     64  63  94 CALM      29.83S
MCMINNVILLE    CLEAR     63  63 100 CALM      29.83S
COLUMBIA       CLEAR    N/A N/A N/A CALM      29.77R
SHELBYVILLE    CLOUDY    66  64  94 E3        29.81S
$$

TNZ017-018-042-046-047-280400-
NORTHEAST TENNESSEE

CITY           SKY/WX    TMP DP  RH WIND       PRES   REMARKS
TRI CITIES     CLOUDY    62  60  93 S3        29.88R THUNDER
$$

TNZ012-013-036-069-073-074-280400-
CENTRAL EAST TENNESSEE

CITY           SKY/WX    TMP DP  RH WIND       PRES   REMARKS
KNOXVILLE      CLOUDY    74  59  59 S8        29.81S
OAK RIDGE      CLOUDY    71  61  70 CALM      29.83R
GATLINBURG     PTCLDY    68  57  68 E5        29.83R
MORRISTOWN     MOCLDY    70  61  73 CALM      29.84S
$$

TNZ083-085-099-280400-
SOUTHEAST TENNESSEE

CITY           SKY/WX    TMP DP  RH WIND       PRES   REMARKS
CHATTANOOGA    CLOUDY    69  64  84 N5        29.83R
$$

SKY/WX REPORTED AS FAIR MEANS FEW OR NO CLOUDS BELOW
12 THOUSAND FEET.





USA.gov is the U.S. government's official web portal to all federal, state and local government web resources and services.